RYR4434 LOWW-LGSA

Flight info

Callsign RYR4434
Flight time N/A
Altitude 37000
Route ARSIN DCT NALOX DCT OSDUK DCT DOBAR DCT PINDO DCT PIKOS DCT LUSES DCT ATV UP169 MANOK L612 RUSOS
Aircraft A320/M-SDE3FGHIRWY/LB1

Departure

Time 2026-04-30 14:24
Airport Vienna International Airport (LOWW)

Arrival

Time N/A
Airport Chania International Airport (LGSA)
Time Latitude Longitude Altitude Speed Heading
2026-04-30 13:39 48.12083 16.55482 622 ft 0 kts 296°
2026-04-30 14:16 48.12090 16.55461 620 ft 5 kts 295°
2026-04-30 14:16 48.12095 16.55415 615 ft 4 kts 250°
2026-04-30 14:17 48.12077 16.55395 612 ft 3 kts 206°
2026-04-30 14:17 48.12047 16.55374 609 ft 7 kts 205°
2026-04-30 14:17 48.12003 16.55343 620 ft 7 kts 205°
2026-04-30 14:17 48.11946 16.55309 613 ft 9 kts 181°
2026-04-30 14:18 48.11909 16.55373 612 ft 9 kts 115°
2026-04-30 14:18 48.11848 16.55425 609 ft 11 kts 188°
2026-04-30 14:18 48.11765 16.55570 614 ft 12 kts 116°
2026-04-30 14:19 48.11700 16.55769 617 ft 9 kts 116°
2026-04-30 14:19 48.11668 16.55867 623 ft 12 kts 116°
2026-04-30 14:19 48.11624 16.56001 613 ft 15 kts 116°
2026-04-30 14:20 48.11580 16.56138 615 ft 14 kts 116°
2026-04-30 14:20 48.11539 16.56261 619 ft 12 kts 116°
2026-04-30 14:20 48.11455 16.56519 617 ft 16 kts 116°
2026-04-30 14:21 48.11408 16.56664 621 ft 15 kts 116°
2026-04-30 14:21 48.11366 16.56794 621 ft 13 kts 116°
2026-04-30 14:21 48.11290 16.57029 616 ft 11 kts 116°
2026-04-30 14:22 48.11256 16.57130 619 ft 10 kts 116°
2026-04-30 14:22 48.11158 16.57219 614 ft 10 kts 205°
2026-04-30 14:22 48.11084 16.57163 609 ft 13 kts 207°
2026-04-30 14:23 48.11067 16.57064 609 ft 12 kts 296°
2026-04-30 14:23 48.11528 16.55651 615 ft 136 kts 296°
2026-04-30 14:24 48.12298 16.52641 1646 ft 163 kts 271°
2026-04-30 14:24 48.11787 16.51030 2060 ft 191 kts 222°
2026-04-30 14:25 48.09311 16.48757 2802 ft 232 kts 215°
2026-04-30 14:25 48.05956 16.47426 3778 ft 273 kts 170°
2026-04-30 14:26 48.02153 16.48196 5645 ft 280 kts 171°
2026-04-30 14:26 48.00215 16.48568 6592 ft 282 kts 170°
2026-04-30 14:26 47.96260 16.48385 8332 ft 293 kts 194°
2026-04-30 14:27 47.94363 16.47187 9152 ft 299 kts 207°
2026-04-30 14:27 47.92513 16.45730 9998 ft 303 kts 207°
2026-04-30 14:27 47.90622 16.44293 10693 ft 312 kts 202°
2026-04-30 14:28 47.86151 16.43176 11391 ft 343 kts 172°
2026-04-30 14:28 47.83809 16.43892 12080 ft 344 kts 156°
2026-04-30 14:28 47.81722 16.45588 12797 ft 343 kts 139°
2026-04-30 14:28 47.79839 16.47802 13524 ft 347 kts 137°
2026-04-30 14:29 47.76028 16.52360 14856 ft 356 kts 137°
2026-04-30 14:29 47.72138 16.57026 16123 ft 363 kts 137°
2026-04-30 14:30 47.66147 16.64186 17998 ft 374 kts 137°
2026-04-30 14:31 47.62037 16.69067 19147 ft 382 kts 137°
2026-04-30 14:31 47.57685 16.73633 20214 ft 394 kts 150°
2026-04-30 14:31 47.55070 16.75119 20763 ft 402 kts 162°
2026-04-30 14:32 47.49476 16.76072 21824 ft 412 kts 174°
2026-04-30 14:32 47.46602 16.76338 22355 ft 416 kts 174°
2026-04-30 14:32 47.43707 16.76611 22875 ft 419 kts 174°
2026-04-30 14:33 47.40784 16.76888 23292 ft 422 kts 174°
2026-04-30 14:33 47.34927 16.77448 23459 ft 423 kts 174°
2026-04-30 14:33 47.31986 16.77733 24017 ft 425 kts 174°
2026-04-30 14:34 47.29027 16.78023 24479 ft 427 kts 174°
2026-04-30 14:34 47.26056 16.78312 24935 ft 429 kts 174°
2026-04-30 14:34 47.23070 16.78594 25371 ft 431 kts 174°
2026-04-30 14:34 47.20071 16.78875 25791 ft 433 kts 174°
2026-04-30 14:35 47.14029 16.79443 26598 ft 437 kts 174°
2026-04-30 14:35 47.10989 16.79735 26988 ft 439 kts 174°
2026-04-30 14:35 47.07933 16.80030 27373 ft 441 kts 174°
2026-04-30 14:36 47.04866 16.80320 27737 ft 443 kts 174°
2026-04-30 14:36 47.01781 16.80606 28101 ft 445 kts 175°
2026-04-30 14:36 46.98678 16.80891 28461 ft 448 kts 175°
2026-04-30 14:36 46.95565 16.81180 28820 ft 449 kts 175°
2026-04-30 14:37 46.92442 16.81542 29193 ft 450 kts 171°
2026-04-30 14:37 46.89379 16.82476 29523 ft 450 kts 161°
2026-04-30 14:37 46.86450 16.84085 29845 ft 450 kts 152°
2026-04-30 14:37 46.83766 16.86285 30181 ft 448 kts 143°
2026-04-30 14:38 46.81299 16.89063 30491 ft 448 kts 136°
2026-04-30 14:38 46.78928 16.92022 30766 ft 450 kts 137°
2026-04-30 14:38 46.76536 16.94991 30978 ft 453 kts 137°
2026-04-30 14:38 46.74129 16.97968 31196 ft 456 kts 137°
2026-04-30 14:39 46.71705 17.00967 31394 ft 458 kts 137°
2026-04-30 14:39 46.69265 17.03984 31607 ft 461 kts 137°
2026-04-30 14:39 46.66814 17.07008 31832 ft 463 kts 137°
2026-04-30 14:40 46.61902 17.13065 32445 ft 463 kts 137°
2026-04-30 14:40 46.59441 17.16090 32735 ft 463 kts 137°
2026-04-30 14:40 46.56979 17.19111 33022 ft 464 kts 137°
2026-04-30 14:40 46.54513 17.22135 33333 ft 464 kts 137°
2026-04-30 14:41 46.52043 17.25162 33620 ft 465 kts 137°
2026-04-30 14:41 46.49575 17.28191 33907 ft 465 kts 137°
2026-04-30 14:41 46.47106 17.31221 34186 ft 465 kts 138°
2026-04-30 14:41 46.44630 17.34251 34456 ft 466 kts 138°
2026-04-30 14:42 46.42152 17.37275 34695 ft 466 kts 138°
2026-04-30 14:42 46.39668 17.40297 34934 ft 466 kts 138°
2026-04-30 14:42 46.37186 17.43307 35168 ft 466 kts 138°
2026-04-30 14:42 46.34698 17.46318 35399 ft 466 kts 138°
2026-04-30 14:43 46.32216 17.49323 35641 ft 466 kts 139°
2026-04-30 14:43 46.29732 17.52337 35851 ft 466 kts 139°
2026-04-30 14:43 46.27281 17.55310 36056 ft 466 kts 139°
2026-04-30 14:43 46.24762 17.58359 36262 ft 466 kts 139°
2026-04-30 14:44 46.22312 17.61322 36464 ft 466 kts 139°
2026-04-30 14:44 46.19827 17.64326 36629 ft 466 kts 139°
2026-04-30 14:44 46.17337 17.67333 36806 ft 467 kts 139°
2026-04-30 14:44 46.14843 17.70336 36989 ft 467 kts 139°
2026-04-30 14:45 46.12343 17.73337 37170 ft 467 kts 139°
2026-04-30 14:45 46.09845 17.76330 37333 ft 468 kts 139°
2026-04-30 14:45 46.04854 17.82305 37346 ft 466 kts 139°
2026-04-30 14:46 45.99876 17.88259 37342 ft 465 kts 139°
2026-04-30 14:46 45.94899 17.94200 37333 ft 465 kts 140°
2026-04-30 14:47 45.89903 18.00145 37336 ft 467 kts 140°
2026-04-30 14:47 45.84885 18.06086 37349 ft 467 kts 140°
2026-04-30 14:48 45.79821 18.11935 37344 ft 468 kts 146°
2026-04-30 14:48 45.74022 18.16081 37345 ft 467 kts 159°
2026-04-30 14:49 45.67994 18.19532 37329 ft 466 kts 159°
2026-04-30 14:49 45.61961 18.22977 37327 ft 467 kts 159°
2026-04-30 14:50 45.52892 18.28139 37343 ft 468 kts 159°
2026-04-30 14:51 45.43817 18.33297 37330 ft 468 kts 159°
2026-04-30 14:52 45.34769 18.38412 37341 ft 469 kts 159°
2026-04-30 14:52 45.25671 18.43530 37352 ft 469 kts 159°
2026-04-30 14:53 45.16581 18.48658 37348 ft 468 kts 160°
2026-04-30 14:54 45.04453 18.55440 37343 ft 468 kts 160°
2026-04-30 14:55 44.95369 18.60504 37329 ft 468 kts 160°
2026-04-30 14:56 44.83292 18.67212 37339 ft 468 kts 160°
2026-04-30 14:57 44.74190 18.72249 37327 ft 467 kts 160°
2026-04-30 14:58 44.62079 18.78922 37321 ft 467 kts 160°
2026-04-30 14:58 44.53035 18.83881 37301 ft 467 kts 161°
2026-04-30 15:00 44.37887 18.92158 37293 ft 467 kts 161°
2026-04-30 15:01 44.25759 18.98750 37309 ft 467 kts 161°
2026-04-30 15:01 44.16671 19.03677 37309 ft 467 kts 161°
2026-04-30 15:02 44.10616 19.06943 37289 ft 467 kts 162°
2026-04-30 15:03 43.95510 19.15064 37304 ft 467 kts 162°
2026-04-30 15:04 43.81395 19.22616 37285 ft 466 kts 162°
2026-04-30 15:06 43.66237 19.30697 37262 ft 467 kts 163°
2026-04-30 15:07 43.54098 19.37097 37280 ft 467 kts 163°
2026-04-30 15:08 43.41946 19.43519 37267 ft 468 kts 163°
2026-04-30 15:09 43.26773 19.51487 37270 ft 468 kts 163°
2026-04-30 15:10 43.14590 19.57845 37273 ft 468 kts 164°
2026-04-30 15:11 42.96308 19.67356 37276 ft 469 kts 164°
2026-04-30 15:13 42.81066 19.75219 37259 ft 468 kts 164°
2026-04-30 15:14 42.59767 19.86144 37244 ft 467 kts 165°
2026-04-30 15:17 42.32493 20.00042 37235 ft 466 kts 165°
2026-04-30 15:19 42.08176 20.12305 37219 ft 467 kts 166°